Snowfall_Accumulation
0.1 0.0 0.1 0.0 0.2 0.2 0.2 0.1 0.0 0.0 0.0 0.0 0.0 0.0 0.0 0.0 0.0 0.0 0.0 0.0 0.0 0.0
0.3 0.3 0.2 0.2 0.1 0.2 0.1 0.1 0.1 0.0 0.0 0.0 0.0 0.0 0.0 0.0 0.0 0.0 0.0 0.0 0.0 0.0
0.7 0.5 0.7 0.4 0.3 0.3 0.2 0.1 0.1 0.0 0.0 0.0 0.0 0.0 0.0 0.0 0.0 0.0 0.0 0.0 0.0 0.0
2.7 0.8 0.8 1.1 1.6 0.9 1.4 0.3 0.2 0.1 0.1 0.2 0.2 0.0 0.0 0.0 0.0 0.0 0.0 0.0 0.0 0.0
9.1 11.4 6.2 6.5 4.5 5.8 6.1 2.8 2.6 2.5 1.8 1.1 0.4 1.2 0.0 0.0 0.0 0.0 0.0 0.0 0.0 0.0
7.5 10.3 14.3 11.5 10.1 7.9 7.9 7.6 7.4 6.6 5.4 4.6 4.7 4.8 6.7 2.9 0.8 0.0 0.0 0.0 0.0 0.0
10.2 1.7 5.2 10.4 7.7 5.6 5.7 7.9 10.2 13.3 14.1 12.0 7.3 7.9 6.9 5.7 6.1 2.4 2.9 2.6 0.0 0.0
3.5 2.4 0.8 0.9 1.9 1.6 1.4 3.1 8.8 9.0 10.4 9.0 6.8 6.6 4.4 2.9 5.9 5.8 4.7 6.6 4.1 3.0
0.6 0.6 0.6 0.3 0.3 0.1 0.0 0.0 0.5 0.5 0.5 3.3 2.7 1.9 0.8 0.5 1.7 2.5 1.7 1.4 1.1 0.9
0.2 0.1 0.1 0.1 0.0 0.1 0.2 0.0 0.0 0.0 0.0 0.0 0.1 0.3 0.2 0.0 0.2 0.4 0.6 0.4 0.2 0.1
0.0 0.0 0.0 0.0 0.0 0.0 0.0 0.0 0.0 0.0 0.0 0.0 0.0 0.0 0.0 0.0 0.0 0.0 0.0 0.0 0.0 0.0
0.0 0.0 0.0 0.0 0.0 0.0 0.0 0.0 0.0 0.0 0.0 0.0 0.0 0.0 0.0 0.0 0.0 0.0 0.0 0.0 0.0 0.0
0.0 0.0 0.0 0.0 0.0 0.0 0.0 0.0 0.0 0.0 0.0 0.0 0.0 0.0 0.0 0.0 0.0 0.0 0.0 0.0 0.0 0.0
0.0 0.0 0.0 0.0 0.0 0.0 0.0 0.0 0.0 0.0 0.0 0.0 0.0 0.0 0.0 0.0 0.0 0.0 0.0 0.0 0.0 0.0